Flag for Canada Weather past 2 weeks in Québec, Quebec, Canada

Now
45 °F

Passing clouds.


Feels Like: 39 °F
Forecast: 40 / 56 °F
Wind: 10 mph from West

Location: Quebec Weather Station

Current Time: Sep 22, 2014 at 11:29:19 PM

Latest Report: Sep 22, 2014 at 11:00 PM


Visibility: 15 mi

Pressure: 29.95 "Hg

Humidity: 81%

Dew point: 39 °F

Location of QuébecLocation

Historic Weather in Québec — Graph

°F

Québec temperature yesterday

Maximum temperature yesterday: 68 °F (at 2:00 PM)
Minimum temperature yesterday: 57 °F (at 12:00 AM)
Average temperature yesterday: 64 °F

Past Weeks' High & Low Weather Summary

 TemperatureHumidityPressure
High73 °F (Sep 9, 3:00 PM)100% (Sep 11, 12:00 PM)30.42 "Hg (Sep 11, 12:00 PM)
Low28 °F (Sep 19, 5:00 AM)30% (Sep 19, 4:00 PM)29.40 "Hg (Sep 22, 5:00 AM)
Average53 °F79%30.03 "Hg
* Reported Sep 7 10:00 PM — Sep 22 10:00 PM, Québec, Weather by CustomWeather, © 2014

Note: Actual official high and low records may vary slightly from our data, if they occured in-between our weather recording intervals... More about our weather records

Advertising

Québec weather history for previous 24 hours

 ConditionsComfort  
Time TempWeatherWind HumidityBarometerVisibility
10:00 PM
Sep 22
45 °FPassing clouds.13 mph76%29.92 "Hg15 mi
9:00 PM46 °FPartly cloudy.15 mph82%29.88 "Hg15 mi
8:00 PM46 °FPassing clouds.15 mph82%29.86 "Hg30 mi
7:00 PM48 °FPartly sunny.13 mph82%29.82 "Hg30 mi
6:00 PM50 °FScattered showers. Partly sunny.13 mph76%29.78 "Hg30 mi
5:00 PM50 °FSprinkles. Mostly cloudy.14 mph82%29.74 "Hg30 mi
4:51 PM50 °FSprinkles. Partly sunny.18 mph76%29.74 "Hg30 mi
4:00 PM50 °FScattered showers. Overcast.16 mph76%29.72 "Hg30 mi
3:00 PM48 °FSprinkles. Overcast.21 mph82%29.69 "Hg15 mi
2:00 PM48 °FSprinkles. Fog.23 mph87%29.64 "Hg10 mi
1:00 PM55 °FScattered showers. Broken clouds.21 mph72%29.59 "Hg20 mi
12:00 PM52 °FSprinkles. Fog.25 mph82%29.56 "Hg6 mi
11:00 AM55 °FPartly sunny.23 mph77%29.50 "Hg30 mi
10:00 AM55 °FPartly sunny.18 mph88%29.49 "Hg25 mi
9:00 AM55 °FDrizzle. Fog.17 mph94%29.46 "Hg6 mi
8:00 AM57 °FDrizzle. Fog.20 mph94%29.44 "Hg2 mi
7:00 AM61 °FLight rain. Fog.15 mph94%29.41 "Hg6 mi
6:50 AM61 °FFog.18 mph94%29.41 "Hg6 mi
6:00 AM63 °FSprinkles. Fog.10 mph94%29.41 "Hg4 mi
5:00 AM63 °FSprinkles. Fog.9 mph100%29.40 "Hg3 mi
4:00 AM63 °FSprinkles. Fog.6 mph100%29.41 "Hg1 mi
3:00 AM63 °FSprinkles. Fog.2 mph100%29.41 "Hg1 mi
2:00 AM63 °FSprinkles. Fog.2 mph100%29.45 "Hg1 mi
1:00 AM63 °FSprinkles. Fog.2 mph100%29.46 "Hg1 mi
12:00 AM63 °FSprinkles. Fog.5 mph100%29.49 "Hg4 mi
11:50 PM
Sep 21
63 °FSprinkles. Fog.3 mph100%29.50 "Hg4 mi
11:00 PM64 °FSprinkles. Mostly cloudy.3 mph94%29.49 "Hg15 mi
Weather by CustomWeather, © 2014

See weather overviewHow to use our weather pages